METEOR 3-6

导读 | 豆包AI

METEOR 3-6是独联体(CIS)于1994年1月25日发射的第三代“流星”极轨气象卫星,属于苏联/俄罗斯持续发展的流星气象卫星系列。该系列卫星主要服务于气象与环境监测,提供气象观测数据支持天气分析与气候监测,作为第三代流星系列的收尾星,延续了苏联时期气象卫星的任务体系,为全球气象研究和区域环境观测提供数据支撑,在苏联解体后的航天气象观测体系中具有承续意义。

基本信息
目录编号:
22969
目录名称:
METEOR 3-6
国际标识:
1994-003A
轨道中心:
EARTH
卫星名称:
METEOR 3-6
卫星全名:
--
卫星状态:
在轨 (已飞行11736 天)
发射日期:
1994-01-25 UTC
国别 :
俄罗斯(独联体) (CIS)
星等 :
--
轨道信息
数据来源 国际轨道数据
星历时间: 2026-03-13T22:26:14+0800
10小时前
查看轨道信息
半长轴: 7574.109km
偏心率: 0.0016312
轨道倾角: 82.566°
近地点辐角 87.936°
升交点赤经 154.771°
平近点角 272.363°
近地点: 1183.617km
远地点: 1208.327km
周期: 109.334分钟
每日圈数: 13.170598
详细信息
使用方式:
暂无
2D轨道图
3D轨道图
轨道高度分析图
轨道倾角分析图
轨道综合分析图
查看轨道综合分析图